Radiation Dose at Monitoring Post of Fukushima Daini Nuclear Power Station
Date,Time,MP-1(microSv/h),MP-2(microSv/h),MP-3(microSv/h),MP-4(microSv/h),MP-5(microSv/h),MP-6(microSv/h),MP-7(microSv/h),Wind Direction,Wind Velocity(m/s),Rain
2016/09/01,00:00,0.390,0.233,0.413,0.377,0.363,0.192,0.164,south-southwest,6.5,No
2016/09/01,00:10,0.390,0.236,0.408,0.375,0.361,0.193,0.163,south-southwest,5.9,No
2016/09/01,00:20,0.393,0.235,0.413,0.376,0.364,0.192,0.163,south-southwest,6.6,No
2016/09/01,00:30,0.389,0.236,0.412,0.376,0.362,0.194,0.163,south,5.9,No
2016/09/01,00:40,0.392,0.236,0.409,0.374,0.363,0.192,0.162,south,5.6,No
2016/09/01,00:50,0.391,0.235,0.412,0.379,0.364,0.193,0.164,south-southwest,4.9,No
2016/09/01,01:00,0.390,0.235,0.406,0.374,0.361,0.194,0.162,south-southwest,5.1,No
2016/09/01,01:10,0.394,0.234,0.412,0.377,0.363,0.192,0.163,south-southwest,5.6,No
2016/09/01,01:20,0.389,0.236,0.409,0.377,0.363,0.192,0.162,south-southwest,6.2,No
2016/09/01,01:30,0.395,0.234,0.408,0.376,0.364,0.191,0.163,south-southwest,5.3,No
2016/09/01,01:40,0.390,0.236,0.411,0.378,0.362,0.193,0.162,south-southwest,4.1,No
2016/09/01,01:50,0.392,0.235,0.409,0.375,0.363,0.193,0.163,southwest,2.5,No
2016/09/01,02:00,0.392,0.236,0.414,0.377,0.362,0.193,0.162,west-southwest,0.8,No
2016/09/01,02:10,0.389,0.235,0.409,0.375,0.362,0.193,0.163,west-southwest,0.9,No
2016/09/01,02:20,0.391,0.236,0.411,0.376,0.363,0.192,0.162,west-northwest,0.9,No
2016/09/01,02:30,0.388,0.236,0.408,0.374,0.361,0.194,0.163,west,0.7,No
2016/09/01,02:40,0.392,0.235,0.412,0.377,0.362,0.192,0.163,south-southwest,0.7,No
2016/09/01,02:50,0.389,0.235,0.410,0.375,0.362,0.193,0.163,south-southeast,1.2,No
2016/09/01,03:00,0.393,0.236,0.410,0.376,0.364,0.192,0.163,south,1.1,No
2016/09/01,03:10,0.391,0.236,0.412,0.376,0.360,0.193,0.162,south-southeast,0.8,No
2016/09/01,03:20,0.393,0.235,0.410,0.373,0.365,0.192,0.163,-,CALM,No
2016/09/01,03:30,0.392,0.236,0.411,0.376,0.362,0.193,0.163,-,CALM,No
2016/09/01,03:40,0.391,0.234,0.407,0.375,0.365,0.193,0.163,west-southwest,1.0,No
2016/09/01,03:50,0.393,0.236,0.413,0.377,0.362,0.192,0.163,south-southwest,1.6,No
2016/09/01,04:00,0.391,0.235,0.408,0.375,0.364,0.193,0.162,west-southwest,0.8,No
2016/09/01,04:10,0.392,0.235,0.411,0.380,0.361,0.193,0.162,southwest,1.1,No
2016/09/01,04:20,0.388,0.235,0.409,0.377,0.363,0.193,0.163,south-southwest,1.6,No
2016/09/01,04:30,0.393,0.235,0.413,0.378,0.362,0.192,0.163,southwest,4.2,No
2016/09/01,04:40,0.389,0.235,0.410,0.376,0.361,0.192,0.161,southwest,5.5,No
2016/09/01,04:50,0.391,0.235,0.409,0.376,0.363,0.192,0.163,southwest,4.3,No
2016/09/01,05:00,0.391,0.235,0.410,0.377,0.362,0.194,0.161,south-southwest,3.0,No
2016/09/01,05:10,0.391,0.234,0.408,0.375,0.364,0.192,0.162,south-southwest,3.3,No
2016/09/01,05:20,0.391,0.234,0.411,0.377,0.362,0.192,0.162,southwest,3.9,No
2016/09/01,05:30,0.391,0.236,0.408,0.374,0.364,0.194,0.162,southwest,2.2,No
2016/09/01,05:40,0.392,0.235,0.412,0.377,0.360,0.193,0.161,southwest,1.9,No
2016/09/01,05:50,0.390,0.236,0.409,0.374,0.363,0.192,0.164,west-southwest,1.3,No
2016/09/01,06:00,0.393,0.235,0.411,0.377,0.362,0.192,0.163,west,1.0,No
2016/09/01,06:10,0.390,0.236,0.408,0.375,0.364,0.193,0.162,north,1.5,No
2016/09/01,06:20,0.392,0.233,0.410,0.377,0.360,0.192,0.162,north-northeast,0.8,No
2016/09/01,06:30,0.388,0.236,0.408,0.375,0.363,0.191,0.162,-,CALM,No
2016/09/01,06:40,0.392,0.235,0.409,0.376,0.362,0.192,0.162,north,1.3,No
2016/09/01,06:50,0.391,0.237,0.411,0.376,0.359,0.192,0.161,north,1.0,No
2016/09/01,07:00,0.391,0.235,0.408,0.375,0.364,0.192,0.160,north-northeast,0.6,No
2016/09/01,07:10,0.393,0.235,0.409,0.378,0.361,0.192,0.161,-,CALM,No
2016/09/01,07:20,0.389,0.236,0.409,0.374,0.361,0.193,0.160,north,1.6,No
2016/09/01,07:30,0.392,0.235,0.405,0.375,0.364,0.193,0.163,north-northwest,2.0,No
2016/09/01,07:40,0.392,0.234,0.408,0.378,0.362,0.193,0.161,north-northwest,1.3,No
2016/09/01,07:50,0.390,0.234,0.409,0.375,0.359,0.192,0.162,north-northwest,1.5,No
2016/09/01,08:00,0.392,0.234,0.407,0.373,0.364,0.193,0.162,-,CALM,No
2016/09/01,08:10,0.389,0.234,0.411,0.371,0.364,0.193,0.162,north-northwest,0.7,No
2016/09/01,08:20,0.386,0.232,0.411,0.372,0.361,0.193,0.163,north,0.6,No
2016/09/01,08:30,0.386,0.233,0.409,0.375,0.357,0.193,0.163,-,CALM,No
2016/09/01,08:40,0.387,0.234,0.407,0.374,0.360,0.193,0.162,-,CALM,No
2016/09/01,08:50,0.385,0.234,0.412,0.375,0.365,0.192,0.163,-,CALM,No
2016/09/01,09:00,0.388,0.233,0.409,0.375,0.363,0.193,0.164,north-northeast,0.7,No
2016/09/01,09:10,0.388,0.234,0.406,0.375,0.362,0.192,0.163,north-northeast,1.2,No
2016/09/01,09:20,0.391,0.235,0.410,0.376,0.361,0.192,0.164,north-northeast,1.8,No
2016/09/01,09:30,0.391,0.236,0.411,0.376,0.363,0.193,0.163,northeast,2.1,No
2016/09/01,09:40,0.389,0.235,0.410,0.376,0.362,0.193,0.164,east-northeast,2.2,No
2016/09/01,09:50,0.390,0.235,0.407,0.378,0.363,0.193,0.164,northeast,2.8,No
2016/09/01,10:00,0.390,0.235,0.412,0.379,0.361,0.193,0.164,northeast,3.1,No
2016/09/01,10:10,0.391,0.236,0.412,0.381,0.362,0.192,0.164,northeast,2.9,No
2016/09/01,10:20,0.391,0.236,0.409,0.379,0.362,0.193,0.164,east-northeast,2.5,No
2016/09/01,10:30,0.392,0.237,0.406,0.380,0.362,0.193,0.164,east-northeast,2.8,No
2016/09/01,10:40,0.390,0.237,0.406,0.378,0.362,0.194,0.165,east-northeast,2.8,No
2016/09/01,10:50,0.391,0.236,0.407,0.380,0.365,0.193,0.164,east-northeast,2.6,No
2016/09/01,11:00,0.391,0.237,0.407,0.381,0.363,0.193,0.163,northeast,2.5,No
2016/09/01,11:10,0.393,0.237,0.407,0.378,0.365,0.194,0.165,northeast,2.8,No
2016/09/01,11:20,0.392,0.236,0.407,0.382,0.366,0.194,0.165,northeast,1.4,No
2016/09/01,11:30,0.394,0.237,0.409,0.380,0.364,0.193,0.164,northeast,3.2,No
2016/09/01,11:40,0.392,0.236,0.409,0.380,0.364,0.192,0.164,northeast,2.7,No
2016/09/01,11:50,0.391,0.237,0.412,0.380,0.364,0.194,0.164,northeast,3.1,No
2016/09/01,12:00,0.392,0.237,0.412,0.378,0.365,0.194,0.165,north-northeast,2.9,No
2016/09/01,12:10,0.392,0.237,0.412,0.378,0.362,0.193,0.164,northeast,2.7,No
2016/09/01,12:20,0.391,0.237,0.412,0.379,0.361,0.195,0.164,northeast,1.9,No
2016/09/01,12:30,0.393,0.237,0.413,0.381,0.362,0.193,0.164,northeast,2.6,No
2016/09/01,12:40,0.391,0.238,0.413,0.379,0.364,0.195,0.165,east-southeast,1.7,No
2016/09/01,12:50,0.390,0.237,0.413,0.379,0.365,0.193,0.165,east,2.0,No
2016/09/01,13:00,0.389,0.236,0.414,0.379,0.364,0.194,0.165,east-southeast,2.2,No
2016/09/01,13:10,0.391,0.237,0.413,0.380,0.363,0.194,0.165,east-southeast,2.2,No
2016/09/01,13:20,0.390,0.237,0.413,0.378,0.365,0.195,0.164,east-northeast,1.9,No
2016/09/01,13:30,0.390,0.237,0.414,0.378,0.364,0.195,0.165,southeast,0.7,No
2016/09/01,13:40,0.392,0.237,0.414,0.379,0.366,0.194,0.165,east-southeast,1.8,No
2016/09/01,13:50,0.391,0.238,0.414,0.380,0.366,0.194,0.164,southeast,1.3,No
2016/09/01,14:00,0.391,0.238,0.412,0.380,0.365,0.194,0.165,east-southeast,0.7,No
2016/09/01,14:10,0.391,0.238,0.412,0.379,0.365,0.195,0.164,-,CALM,No
2016/09/01,14:20,0.393,0.236,0.411,0.377,0.365,0.195,0.165,east-southeast,1.6,No
2016/09/01,14:30,0.392,0.235,0.412,0.379,0.365,0.195,0.164,southeast,1.7,No
2016/09/01,14:40,0.392,0.238,0.413,0.378,0.364,0.194,0.164,southeast,2.0,No
2016/09/01,14:50,0.392,0.237,0.409,0.377,0.364,0.194,0.163,southeast,2.5,No
2016/09/01,15:00,0.391,0.237,0.408,0.376,0.364,0.194,0.163,south-southeast,2.9,No
2016/09/01,15:10,0.391,0.236,0.408,0.375,0.365,0.193,0.164,south,2.1,No
2016/09/01,15:20,0.391,0.235,0.411,0.376,0.364,0.194,0.164,southeast,0.5,No
2016/09/01,15:30,0.395,0.236,0.410,0.376,0.364,0.194,0.162,south-southeast,1.3,No
2016/09/01,15:40,0.397,0.236,0.410,0.375,0.363,0.193,0.163,southeast,1.1,No
2016/09/01,15:50,0.395,0.236,0.408,0.375,0.363,0.195,0.164,south-southeast,1.6,No
2016/09/01,16:00,0.391,0.235,0.410,0.381,0.362,0.193,0.164,south,1.6,No
2016/09/01,16:10,0.392,0.235,0.409,0.382,0.362,0.194,0.165,-,CALM,No
2016/09/01,16:20,0.389,0.234,0.413,0.380,0.364,0.192,0.164,west-southwest,1.0,No
2016/09/01,16:30,0.392,0.237,0.416,0.378,0.364,0.193,0.164,west,0.7,No
2016/09/01,16:40,0.396,0.237,0.413,0.376,0.364,0.194,0.164,-,CALM,No
2016/09/01,16:50,0.395,0.236,0.412,0.379,0.364,0.193,0.164,-,CALM,No
2016/09/01,17:00,0.391,0.236,0.410,0.382,0.361,0.192,0.164,east-southeast,0.7,No
2016/09/01,17:10,0.390,0.236,0.411,0.380,0.362,0.195,0.164,east,0.5,No
2016/09/01,17:20,0.396,0.237,0.415,0.377,0.363,0.194,0.163,-,CALM,No
2016/09/01,17:30,0.396,0.235,0.415,0.378,0.362,0.193,0.165,-,CALM,No
2016/09/01,17:40,0.393,0.236,0.411,0.381,0.360,0.193,0.166,-,CALM,No
2016/09/01,17:50,0.391,0.238,0.411,0.380,0.363,0.194,0.164,-,CALM,No
2016/09/01,18:00,0.395,0.237,0.416,0.376,0.367,0.194,0.164,-,CALM,No
2016/09/01,18:10,0.395,0.236,0.415,0.379,0.366,0.193,0.164,-,CALM,No
2016/09/01,18:20,0.391,0.237,0.412,0.383,0.363,0.194,0.165,west,0.8,No
2016/09/01,18:30,0.391,0.238,0.413,0.378,0.364,0.193,0.163,west-southwest,0.8,No
2016/09/01,18:40,0.396,0.235,0.414,0.377,0.368,0.194,0.165,-,CALM,No
2016/09/01,18:50,0.394,0.237,0.413,0.383,0.365,0.194,0.166,west-southwest,0.7,No
2016/09/01,19:00,0.393,0.238,0.410,0.380,0.363,0.196,0.165,-,CALM,No
2016/09/01,19:10,0.395,0.236,0.415,0.378,0.365,0.195,0.166,-,CALM,No
2016/09/01,19:20,0.395,0.238,0.414,0.382,0.367,0.194,0.165,north,0.8,No
2016/09/01,19:30,0.391,0.237,0.411,0.382,0.363,0.195,0.164,-,CALM,No
2016/09/01,19:40,0.395,0.236,0.415,0.379,0.363,0.193,0.165,north-northeast,0.5,No
2016/09/01,19:50,0.395,0.238,0.414,0.380,0.368,0.196,0.165,north-northeast,0.8,No
2016/09/01,20:00,0.392,0.238,0.412,0.379,0.365,0.195,0.165,-,CALM,No
2016/09/01,20:10,0.396,0.237,0.415,0.377,0.363,0.194,0.167,northeast,0.5,No
2016/09/01,20:20,0.396,0.239,0.415,0.381,0.367,0.195,0.166,-,CALM,No
2016/09/01,20:30,0.393,0.238,0.412,0.381,0.366,0.194,0.165,-,CALM,No
2016/09/01,20:40,0.395,0.238,0.414,0.377,0.364,0.195,0.166,southeast,1.0,No
2016/09/01,20:50,0.394,0.240,0.416,0.381,0.367,0.195,0.164,southeast,1.3,No
2016/09/01,21:00,0.392,0.237,0.412,0.380,0.365,0.194,0.165,-,CALM,No
2016/09/01,21:10,0.395,0.237,0.415,0.379,0.363,0.195,0.166,southeast,0.6,No
2016/09/01,21:20,0.395,0.238,0.416,0.382,0.367,0.194,0.164,east-southeast,0.7,No
2016/09/01,21:30,0.393,0.236,0.412,0.381,0.364,0.194,0.165,south,1.6,No
2016/09/01,21:40,0.396,0.239,0.416,0.378,0.364,0.196,0.166,southeast,0.7,No
2016/09/01,21:50,0.393,0.239,0.415,0.382,0.366,0.195,0.165,-,CALM,No
2016/09/01,22:00,0.393,0.236,0.410,0.380,0.365,0.194,0.166,-,CALM,No
2016/09/01,22:10,0.396,0.239,0.416,0.380,0.365,0.194,0.165,-,CALM,No
2016/09/01,22:20,0.393,0.238,0.415,0.381,0.366,0.193,0.166,west,0.5,No
2016/09/01,22:30,0.393,0.237,0.413,0.380,0.364,0.195,0.165,-,CALM,No
2016/09/01,22:40,0.396,0.239,0.415,0.381,0.369,0.195,0.164,northeast,0.7,No
2016/09/01,22:50,0.391,0.237,0.413,0.382,0.366,0.195,0.166,north,0.7,No
2016/09/01,23:00,0.396,0.239,0.413,0.378,0.362,0.195,0.166,north-northeast,1.0,No
2016/09/01,23:10,0.396,0.238,0.417,0.382,0.366,0.194,0.165,north-northeast,1.3,No
2016/09/01,23:20,0.392,0.237,0.411,0.381,0.365,0.194,0.166,north-northeast,1.6,No
2016/09/01,23:30,0.395,0.239,0.414,0.381,0.364,0.195,0.165,north-northeast,1.9,No
2016/09/01,23:40,0.395,0.237,0.417,0.382,0.367,0.195,0.165,north,1.0,No
2016/09/01,23:50,0.393,0.238,0.412,0.378,0.364,0.195,0.165,north-northwest,1.9,No
